Location: Stull Observatory
(42.2506°N, 77.7903°W)
Time: 20:40:30
(UTC-04:00)

Okean O Rocket - Visible Passes

Search period start: 25 July 2016 00:00
Search period end: 04 August 2016 00:00
Orbit: 623 x 646 km, 98.1° (Epoch: 25 July)

Date Brightness Start Highest point End Pass type
(mag) Time Alt. Az. Time Alt. Az. Time Alt. Az.
25 Jul 2.9 04:14:03 10° NNE 04:18:09 38° E 04:22:15 10° SSE visible
26 Jul 1.9 04:35:34 10° NNE 04:39:57 66° E 04:44:20 10° S visible
27 Jul 4.4 03:23:56 10° ENE 03:24:50 10° E 03:25:43 10° E visible
27 Jul 1.6 04:57:18 10° N 05:01:41 72° WNW 05:06:05 10° SSW visible
28 Jul 4.0 03:43:45 10° NE 03:46:48 18° E 03:49:51 10° SE visible
28 Jul 2.2 05:19:13 10° N 05:23:22 42° WNW 05:27:30 10° SW visible
29 Jul 3.2 04:04:48 10° NE 04:08:42 30° E 04:12:36 10° SSE visible
30 Jul 2.3 04:26:13 10° NNE 04:30:32 52° E 04:34:50 10° S visible
31 Jul 1.6 04:47:52 10° NNE 04:52:17 89° E 04:56:44 10° SSW visible
01 Aug 4.2 03:34:52 10° ENE 03:37:19 15° E 03:39:45 10° SE visible
01 Aug 1.9 05:09:41 10° N 05:14:00 53° WNW 05:18:18 10° SSW visible
02 Aug 3.6 03:55:37 10° NE 03:59:14 24° E 04:02:51 10° SSE visible
02 Aug 2.6 05:31:43 10° N 05:35:37 32° WNW 05:39:33 10° SW visible
03 Aug 2.8 04:16:54 10° NNE 04:21:06 40° E 04:25:16 10° S visible
